Tracking 19247 objects as of 26-Sep-2018
HD Live streaming from Space Station
objects crossing your sky now

FENGYUN 1C DEB

Track FENGYUN 1C DEB now!
10-day predictions


NORAD ID: 35244
Int'l Code: 1999-025DRC
Perigee: 840.0 km
Apogee: 945.3 km
Inclination: 99.1 °
Period: 102.7 minutes
Semi major axis: 7263 km
RCS: 0.0028 m2 (small)
Launch date: May 10, 1999
Source: People's Republic of China (PRC)
Launch site: Taiyaun Space Center, China (TSC)

Note: This is SATELLITE DEBRIS
aabbcc
Your satellite tracking list
Your tracking list is empty




NASA's NSSDC Master Catalog

Two Line Element Set (TLE):
1 35244U 99025DRC 18265.02609836 +.00000541 +00000-0 +37326-3 0  9993
2 35244 099.1317 298.6610 0072443 296.7578 062.6188 14.02400183512479
Source of the keplerian elements: AFSPC